#timestamp,LO_Frequency,Hit,StdDev 
1661731215.6,286046999.3,N
1661731235.4,286046998.3,N
1661731255.3,286047001.0,N
1661731275.1,286047000.8,N
1661731295.9,286046996.5,N
1661731315.7,286046997.7,N
1661731335.5,286046995.1,N
1661731355.4,286046995.9,N
1661731375.2,286046998.0,N
1661731395.0,286046998.0,N
1661731395.9,286046998.0,N
1661731415.8,286046995.2,N
1661731435.6,286046995.3,N
1661731455.5,286046997.2,N
1661731475.3,286046999.2,N
1661731495.1,286046996.9,N
1661731515.9,286046999.3,N
1661731535.7,286047001.0,N
1661731555.5,286046997.0,N
1661731575.4,286046999.0,N
1661731595.2,286046999.7,N
1661731615.1,286047000.2,N
1661731616.0,286047000.2,N
1661731635.8,286047000.3,N
1661731655.6,286047000.5,N
1661731675.5,286046999.9,N
1661731695.3,286047000.9,N
1661731715.1,286047000.7,N
1661731735.9,286047000.0,N
1661731755.7,286047000.9,N
1661731775.6,286047000.1,N
1661731795.4,286047003.4,N
1661731815.2,286047003.5,N
1661731835.1,286047001.3,N
1661731836.0,286047001.3,N
1661731855.8,286047002.6,N
1661731875.6,286047003.8,N
1661731895.5,286047004.3,N
1661731915.3,286047002.1,N
1661731935.2,286046999.8,N
1661731955.9,286046999.5,N
1661731975.7,286046997.3,N
1661731995.6,286046997.1,N
1661732015.4,286046996.7,N
1661732035.3,286046995.0,N
1661732055.1,286046997.3,N
1661732056.0,286046997.3,N
1661732075.8,286046997.9,N
1661732095.7,286046999.4,N
1661732115.5,286046998.9,N
1661732135.3,286047001.2,N
1661732155.2,286047000.8,N
1661732175.0,286046999.1,N
1661732175.9,286046999.1,N
1661732195.8,286046997.5,N
1661732215.6,286046997.1,N
1661732235.4,286046996.7,N
1661732255.3,286046995.4,N
1661732275.1,286046996.1,N
1661732295.8,286046991.9,Y
1661732315.7,286046994.8,P
1661732335.5,286046994.5,N
1661732355.4,286046996.4,N
1661732375.2,286046996.9,N
1661732395.0,286046998.8,N
1661732395.9,286046998.8,N
1661732415.8,286047002.3,N
1661732435.6,286047002.3,N
1661732455.5,286047000.6,N
1661732475.3,286047011.9,Y
1661732495.1,286047002.6,P
1661732515.9,286047005.5,N
1661732535.7,286047001.4,N
1661732555.5,286047000.7,N
1661732575.4,286047000.2,N
1661732595.2,286047004.0,N
1661732615.1,286047003.8,N
1661732616.0,286047003.8,N
1661732635.8,286047002.5,N
1661732655.6,286047002.1,N
1661732675.5,286047001.5,N
1661732695.3,286047003.7,N
1661732715.1,286047001.6,N
1661732735.9,286047001.5,N
1661732755.7,286047002.2,N
1661732775.6,286047001.2,N
1661732795.4,286047000.4,N
1661732815.2,286047000.9,N
1661732835.1,286047000.0,N
1661732836.0,286047000.0,N
1661732855.8,286046999.7,N
1661732875.6,286047002.1,N
1661732895.5,286047004.1,N
1661732915.3,286047002.1,N
1661732935.2,286046998.2,N
1661732955.9,286046996.9,N
1661732975.7,286046999.5,N
1661732995.6,286046998.5,N
1661733015.4,286046996.9,N
1661733035.2,286046999.4,N
1661733055.1,286046994.9,N
1661733056.0,286046994.9,N
1661733075.8,286046996.7,N
1661733095.7,286046996.6,N
1661733115.5,286046995.0,N
1661733135.3,286046997.1,N
1661733155.2,286046996.2,N
1661733175.0,286046995.5,N
1661733175.9,286046995.5,N
1661733195.8,286046997.8,N
1661733215.6,286046998.9,N
1661733235.4,286047000.4,N
1661733255.3,286047004.4,N
1661733275.1,286047003.9,N
1661733295.8,286047003.8,N
1661733315.7,286047003.8,N
1661733335.5,286047003.5,N
1661733355.4,286047005.9,N
1661733375.2,286047007.4,N
1661733395.0,286047004.7,N
1661733395.9,286047004.7,N
1661733415.8,286047005.6,N
1661733435.6,286047001.7,N
1661733455.4,286046999.9,N
1661733475.3,286046998.4,N
1661733495.1,286046996.9,N
1661733515.9,286046998.9,N
1661733535.7,286047001.2,N
1661733555.5,286046997.1,N
1661733575.4,286046997.1,N
1661733595.2,286046995.8,N
1661733615.0,286046993.8,N
1661733615.9,286046993.8,N
1661733635.8,286046994.3,N
1661733655.6,286046996.1,N
1661733675.5,286046999.6,N
1661733695.3,286047000.5,N
1661733715.1,286047002.3,N
1661733735.9,286047001.9,N
1661733755.7,286047004.0,N
1661733775.5,286047004.0,N
1661733795.4,286047004.4,N
1661733815.2,286047001.4,N
1661733835.1,286047001.7,N
1661733836.0,286047001.7,N
1661733855.8,286047002.2,N
1661733875.6,286047000.9,N
1661733895.5,286046998.1,N
1661733915.3,286046997.8,N
1661733935.1,286047000.6,N
1661733955.9,286047002.4,N
1661733975.7,286047001.0,N
1661733995.6,286047001.0,N
1661734015.4,286047001.3,N
1661734035.2,286047001.6,N
1661734055.1,286047002.9,N
1661734056.0,286047002.9,N
1661734075.8,286047000.1,N
1661734095.6,286046998.7,N
1661734115.5,286046998.6,N
1661734135.3,286047001.0,N
1661734155.2,286047001.8,N
1661734175.9,286047004.0,N
1661734195.7,286047005.7,N
1661734215.6,286047002.0,N
1661734235.4,286047000.4,N
1661734255.3,286046998.5,N
1661734275.1,286046998.9,N
1661734276.0,286046998.9,N
1661734295.8,286047000.9,N
1661734315.7,286047000.1,N
1661734335.5,286047003.5,N
1661734355.3,286047005.3,N
1661734375.2,286047003.9,N
1661734395.0,286047001.6,N
1661734395.9,286047001.6,N
1661734415.8,286047000.8,N
1661734435.6,286046998.8,N
1661734455.4,286046998.9,N
1661734475.3,286047000.1,N
1661734495.1,286047001.5,N
1661734515.8,286047001.6,N
1661734535.7,286047001.7,N
1661734555.5,286047006.0,Y
1661734575.4,286047001.8,P
1661734595.2,286047000.3,N
1661734615.0,286047001.9,P
1661734615.9,286047001.9,N
1661734635.8,286047004.4,Y
1661734655.6,286046999.7,P
1661734675.5,286046998.3,N
1661734695.3,286047001.0,N
1661734715.1,286046998.2,N
1661734735.9,286047000.5,N
1661734755.7,286046999.8,N
1661734775.5,286047000.2,N
1661734795.4,286047002.2,N
